When you browse on this site, cookies collect data to enhance your experience and personalize the content and advertising you see.
Visit our Privacy Policy to learn more. By continuing to use the site, you agree to this use of cookies and data.
  • In Österreich
  • Länderverzeichnis
  • Für 7 Tage
  • Wassertemperatur
  • Satellitenkarten
  • Wetterkarte
  • News
  • Widgets
  • user-avatar
    Anmelden

    Stündliche Wetter Suisun City

    Heute, 17 Juli, Mittwoch

    Zeit Temperatur Niederschläge Wind Luftdruck Luftfeuchtigkeit
    00:00 +16°C° 0 mm 3 m/S 757 mmHg 82%
    01:00 +16°C° 0 mm 2 m/S 757 mmHg 86%
    02:00 +15°C° 0 mm 2 m/S 757 mmHg 87%
    03:00 +15°C° 0 mm 2 m/S 757 mmHg 88%
    04:00 +15°C° 0 mm 2 m/S 757 mmHg 89%
    05:00 +16°C° 0 mm 2 m/S 757 mmHg 83%
    06:00 +18°C° 0 mm 1 m/S 757 mmHg 77%
    07:00 +20°C° 0 mm 1 m/S 758 mmHg 70%
    08:00 +23°C° 0 mm 1 m/S 758 mmHg 60%
    09:00 +26°C° 0 mm 1 m/S 758 mmHg 49%
    10:00 +29°C° 0 mm 1 m/S 757 mmHg 39%
    11:00 +31°C° 0 mm 2 m/S 757 mmHg 35%
    12:00 +34°C° 0 mm 2 m/S 757 mmHg 31%
    13:00 +35°C° 0 mm 3 m/S 757 mmHg 28%
    14:00 +35°C° 0 mm 3 m/S 756 mmHg 28%
    15:00 +35°C° 0 mm 4 m/S 756 mmHg 28%
    16:00 +34°C° 0 mm 4 m/S 756 mmHg 28%
    17:00 +32°C° 0 mm 4 m/S 756 mmHg 33%
    18:00 +29°C° 0 mm 3 m/S 756 mmHg 38%
    19:00 +27°C° 0 mm 3 m/S 756 mmHg 43%
    20:00 +25°C° 0 mm 3 m/S 756 mmHg 48%
    21:00 +22°C° 0 mm 3 m/S 756 mmHg 54%
    22:00 +20°C° 0 mm 3 m/S 756 mmHg 59%
    23:00 +19°C° 0 mm 3 m/S 756 mmHg 64%

    Morgen, 18 Juli, Donnerstag

    Zeit Temperatur Niederschläge Wind Luftdruck Luftfeuchtigkeit
    00:00 +18°C° 0 mm 3 m/S 756 mmHg 69%
    01:00 +18°C° 0 mm 2 m/S 757 mmHg 74%
    02:00 +17°C° 0 mm 2 m/S 757 mmHg 77%
    03:00 +17°C° 0 mm 2 m/S 757 mmHg 80%
    04:00 +16°C° 0 mm 2 m/S 757 mmHg 83%
    05:00 +17°C° 0 mm 2 m/S 757 mmHg 79%
    06:00 +18°C° 0 mm 2 m/S 757 mmHg 75%
    07:00 +19°C° 0 mm 2 m/S 758 mmHg 71%
    08:00 +21°C° 0 mm 2 m/S 758 mmHg 64%
    09:00 +24°C° 0 mm 3 m/S 757 mmHg 57%
    10:00 +27°C° 0 mm 3 m/S 757 mmHg 49%
    11:00 +27°C° 0 mm 3 m/S 757 mmHg 48%
    12:00 +28°C° 0 mm 4 m/S 757 mmHg 46%
    13:00 +29°C° 0 mm 5 m/S 757 mmHg 44%
    14:00 +28°C° 0 mm 5 m/S 756 mmHg 47%
    15:00 +27°C° 0 mm 5 m/S 756 mmHg 49%
    16:00 +26°C° 0 mm 6 m/S 756 mmHg 51%
    17:00 +23°C° 0 mm 6 m/S 756 mmHg 59%
    18:00 +21°C° 0 mm 5 m/S 756 mmHg 66%
    19:00 +19°C° 0 mm 5 m/S 756 mmHg 74%
    20:00 +17°C° 0 mm 5 m/S 756 mmHg 78%
    21:00 +17°C° 0 mm 4 m/S 757 mmHg 82%
    22:00 +15°C° 0 mm 4 m/S 757 mmHg 86%
    23:00 +15°C° 0 mm 4 m/S 757 mmHg 86%

    übermorgen, 19 Juli, Freitag

    Zeit Temperatur Niederschläge Wind Luftdruck Luftfeuchtigkeit
    00:00 +14°C° 0 mm 3 m/S 757 mmHg 87%
    01:00 +14°C° 0 mm 3 m/S 757 mmHg 87%
    02:00 +15°C° 0 mm 2 m/S 757 mmHg 89%
    03:00 +14°C° 0 mm 2 m/S 757 mmHg 90%
    04:00 +14°C° 0 mm 1 m/S 757 mmHg 91%
    05:00 +15°C° 0 mm 1 m/S 757 mmHg 85%
    06:00 +18°C° 0 mm 1 m/S 757 mmHg 80%
    07:00 +19°C° 0 mm 1 m/S 758 mmHg 74%
    08:00 +21°C° 0 mm 1 m/S 758 mmHg 64%
    09:00 +24°C° 0 mm 1 m/S 758 mmHg 54%
    10:00 +27°C° 0 mm 2 m/S 758 mmHg 44%
    11:00 +28°C° 0 mm 2 m/S 757 mmHg 41%
    12:00 +29°C° 0 mm 3 m/S 757 mmHg 38%
    13:00 +30°C° 0 mm 4 m/S 757 mmHg 35%
    14:00 +30°C° 0 mm 4 m/S 757 mmHg 38%
    15:00 +29°C° 0 mm 5 m/S 756 mmHg 40%
    16:00 +28°C° 0 mm 5 m/S 756 mmHg 42%
    17:00 +26°C° 0 mm 5 m/S 756 mmHg 49%
    18:00 +23°C° 0 mm 5 m/S 756 mmHg 55%
    19:00 +20°C° 0 mm 4 m/S 757 mmHg 62%
    20:00 +19°C° 0 mm 4 m/S 757 mmHg 68%
    21:00 +18°C° 0 mm 4 m/S 757 mmHg 75%
    22:00 +15°C° 0 mm 4 m/S 757 mmHg 81%
    23:00 +16°C° 0 mm 3 m/S 757 mmHg 83%

    20 Juli, Samstag

    Zeit Temperatur Niederschläge Wind Luftdruck Luftfeuchtigkeit
    00:00 +14°C° 0 mm 3 m/S 757 mmHg 85%
    01:00 +14°C° 0 mm 3 m/S 757 mmHg 87%
    02:00 +15°C° 0 mm 2 m/S 757 mmHg 88%
    03:00 +14°C° 0 mm 2 m/S 757 mmHg 89%
    04:00 +14°C° 0 mm 2 m/S 757 mmHg 89%
    05:00 +15°C° 0 mm 2 m/S 758 mmHg 83%
    06:00 +17°C° 0 mm 2 m/S 758 mmHg 77%
    07:00 +19°C° 0 mm 1 m/S 758 mmHg 71%
    08:00 +21°C° 0 mm 2 m/S 758 mmHg 62%
    09:00 +25°C° 0 mm 2 m/S 758 mmHg 52%
    10:00 +28°C° 0 mm 2 m/S 758 mmHg 43%
    11:00 +29°C° 0 mm 3 m/S 758 mmHg 40%
    12:00 +30°C° 0 mm 3 m/S 757 mmHg 36%
    13:00 +32°C° 0 mm 4 m/S 757 mmHg 33%
    14:00 +32°C° 0 mm 4 m/S 757 mmHg 35%
    15:00 +30°C° 0 mm 4 m/S 756 mmHg 37%
    16:00 +29°C° 0 mm 5 m/S 756 mmHg 38%
    17:00 +27°C° 0 mm 5 m/S 756 mmHg 45%
    18:00 +25°C° 0 mm 4 m/S 756 mmHg 51%
    19:00 +21°C° 0 mm 4 m/S 756 mmHg 58%
    20:00 +20°C° 0 mm 4 m/S 756 mmHg 64%
    21:00 +19°C° 0 mm 4 m/S 757 mmHg 69%
    22:00 +18°C° 0 mm 4 m/S 757 mmHg 75%
    23:00 +17°C° 0 mm 3 m/S 757 mmHg 78%

    21 Juli, Sonntag

    Zeit Temperatur Niederschläge Wind Luftdruck Luftfeuchtigkeit
    00:00 +16°C° 0 mm 3 m/S 757 mmHg 80%
    01:00 +16°C° 0 mm 3 m/S 757 mmHg 83%
    02:00 +14°C° 0 mm 3 m/S 757 mmHg 84%
    03:00 +14°C° 0 mm 3 m/S 757 mmHg 86%
    04:00 +15°C° 0 mm 2 m/S 757 mmHg 87%
    05:00 +16°C° 0 mm 2 m/S 757 mmHg 82%
    06:00 +17°C° 0 mm 2 m/S 757 mmHg 76%
    07:00 +19°C° 0 mm 2 m/S 758 mmHg 70%
    08:00 +23°C° 0 mm 2 m/S 758 mmHg 60%
    09:00 +26°C° 0 mm 2 m/S 758 mmHg 50%
    10:00 +29°C° 0 mm 2 m/S 757 mmHg 40%
    11:00 +30°C° 0 mm 3 m/S 757 mmHg 36%
    12:00 +33°C° 0 mm 3 m/S 757 mmHg 32%
    13:00 +34°C° 0 mm 4 m/S 757 mmHg 27%
    14:00 +34°C° 0 mm 4 m/S 756 mmHg 27%
    15:00 +34°C° 0 mm 4 m/S 756 mmHg 27%
    16:00 +33°C° 0 mm 5 m/S 755 mmHg 27%
    17:00 +30°C° 0 mm 4 m/S 756 mmHg 33%
    18:00 +27°C° 0 mm 4 m/S 756 mmHg 39%
    19:00 +25°C° 0 mm 4 m/S 756 mmHg 45%
    20:00 +22°C° 0 mm 3 m/S 756 mmHg 52%
    21:00 +20°C° 0 mm 3 m/S 757 mmHg 58%
    22:00 +18°C° 0 mm 3 m/S 757 mmHg 65%
    23:00 +18°C° 0 mm 3 m/S 757 mmHg 68%

    22 Juli, Montag

    Zeit Temperatur Niederschläge Wind Luftdruck Luftfeuchtigkeit
    00:00 +17°C° 0 mm 2 m/S 757 mmHg 71%
    01:00 +17°C° 0 mm 2 m/S 757 mmHg 73%
    02:00 +16°C° 0 mm 2 m/S 757 mmHg 75%
    03:00 +16°C° 0 mm 2 m/S 757 mmHg 76%
    04:00 +16°C° 0 mm 2 m/S 757 mmHg 77%
    05:00 +17°C° 0 mm 2 m/S 757 mmHg 72%
    06:00 +19°C° 0 mm 2 m/S 757 mmHg 66%
    07:00 +20°C° 0 mm 2 m/S 757 mmHg 61%
    08:00 +24°C° 0 mm 2 m/S 758 mmHg 51%
    09:00 +27°C° 0 mm 2 m/S 758 mmHg 42%
    10:00 +31°C° 0 mm 2 m/S 758 mmHg 32%
    11:00 +33°C° 0 mm 3 m/S 757 mmHg 30%
    12:00 +34°C° 0 mm 3 m/S 757 mmHg 27%
    13:00 +35°C° 0 mm 4 m/S 757 mmHg 24%
    14:00 +35°C° 0 mm 4 m/S 757 mmHg 25%
    15:00 +34°C° 0 mm 4 m/S 757 mmHg 26%
    16:00 +34°C° 0 mm 5 m/S 756 mmHg 27%
    17:00 +30°C° 0 mm 4 m/S 757 mmHg 35%
    18:00 +27°C° 0 mm 4 m/S 757 mmHg 43%
    19:00 +24°C° 0 mm 3 m/S 757 mmHg 51%
    20:00 +21°C° 0 mm 3 m/S 758 mmHg 59%
    21:00 +19°C° 0 mm 3 m/S 758 mmHg 67%
    22:00 +17°C° 0 mm 3 m/S 758 mmHg 75%
    23:00 +17°C° 0 mm 3 m/S 758 mmHg 78%
    Mehr zeigen